Flag for Argentina Weather past 2 weeks in Salta, Salta, Argentina

Now
55 °F

Clear.


Feels Like: 55 °F
Forecast: 48 / 73 °F
Wind: 2 mph from North

Location: Salta Aerodrome

Current Time: Aug 3, 2015 at 12:20:02 AM

Latest Report: Aug 3, 2015 at 12:00 AM


Visibility: 10 mi

Pressure: 29.95 "Hg (26.00 "Hg at 1184m altitude)

Humidity: 77%

Dew point: 48 °F

Location of SaltaLocation

Historic Weather in Salta — Graph

°F

Salta temperature yesterday

Maximum temperature yesterday: 86 °F (at 4:00 PM)
Minimum temperature yesterday: 45 °F (at 5:00 AM)
Average temperature yesterday: 62 °F

Past Weeks' High & Low Weather Summary

 TemperatureHumidityPressure
High88 °F (Jul 28, 5:00 PM)100% (Jul 19, 7:00 AM)30.39 "Hg (Jul 19, 7:00 AM)
Low34 °F (Jul 22, 9:00 AM)13% (Jul 28, 5:00 PM)29.74 "Hg (Aug 2, 4:00 PM)
Average55 °F69%30.05 "Hg
* Reported Jul 18 11:00 PM — Aug 2 11:00 PM, Salta, Weather by CustomWeather, © 2015

Note: Actual official high and low records may vary slightly from our data, if they occured in-between our weather recording intervals... More about our weather records

Advertising

Salta weather history for previous 24 hours

 ConditionsComfort  
Time TempWeatherWind HumidityBarometerVisibility
11:00 PM
Sun, Aug 2
57 °FClear.No wind72%29.92 "Hg10 mi
10:00 PM61 °FClear.2 mph63%29.92 "Hg10 mi
9:00 PM66 °FClear.6 mph52%29.89 "Hg10 mi
8:00 PM72 °FClear.9 mph47%29.86 "Hg10 mi
7:00 PM75 °FClear.5 mph36%29.80 "Hg10 mi
6:00 PM84 °FClear.8 mph20%29.80 "Hg10 mi
5:00 PM86 °FSunny.10 mph15%29.77 "Hg10 mi
4:00 PM86 °FSunny.8 mph20%29.74 "Hg10 mi
3:00 PM84 °FSunny.8 mph20%29.77 "Hg10 mi
2:00 PM81 °FSunny.3 mph26%29.80 "Hg10 mi
1:00 PM73 °FSunny.2 mph38%29.83 "Hg10 mi
12:00 PM68 °FSunny.3 mph53%29.83 "Hg10 mi
11:00 AM63 °FSunny.5 mph59%29.86 "Hg10 mi
10:00 AM57 °FSunny.No wind77%29.89 "Hg10 mi
9:00 AM46 °FSunny.2 mph93%29.89 "Hg10 mi
8:00 AM45 °FSunny.1 mph87%29.86 "Hg10 mi
7:00 AM45 °FSunny.2 mph93%29.83 "Hg10 mi
6:00 AM48 °FClear.3 mph87%29.83 "Hg10 mi
5:00 AM45 °FClear.3 mph93%29.83 "Hg10 mi
4:00 AM48 °FClear.6 mph87%29.86 "Hg10 mi
3:00 AM46 °FClear.3 mph93%29.86 "Hg10 mi
2:00 AM50 °FClear.No wind88%29.89 "Hg10 mi
1:00 AM50 °FClear.No wind88%29.89 "Hg10 mi
12:00 AM52 °FClear.3 mph82%29.89 "Hg10 mi
Weather by CustomWeather, © 2015

See weather overviewHow to use our weather pages